Weather History for Cheyenne, WY

Change the Weather History Date:

Thursday, November 15, 2012

  Actual Average Record
Temperature  
Mean Temperature 35 °F 36 °F  
Max Temperature 43 °F 47 °F 75 °F (1999)
Min Temperature 27 °F 24 °F -7 °F (1872)
Degree Days  
Heating Degree Days 30 29  
Month to date heating degree days 377 397  
Since 1 July heating degree days 1179 1256  
Cooling Degree Days 0 0  
Month to date cooling degree days 0 0  
Year to date cooling degree days 568 348  
Moisture  
Dew Point 26 °F    
Average Humidity 71    
Maximum Humidity 92    
Minimum Humidity 49    
Precipitation  
Precipitation 0.01 in 0.02 in 0.33 in (1996)
Month to date precipitation 0.02 0.30  
Year to date precipitation 9.58 15.16  
Snow  
Snow 0.10 in 0.30 in 4.10 in (1996)
Month to date snowfall 0.4 3.7  
Since 1 July snowfall 10.6 10.0  
Snow Depth T in    
Sea Level Pressure  
Sea Level Pressure 30.33 in    
Wind  
Wind Speed 10 mph (West)    
Max Wind Speed 21 mph    
Max Gust Speed 26 mph    
Visibility 8 miles    
Events Snow    
T = Trace of Precipitation, MM = Missing Value Source: NWS Daily Summary

Daily Weather History Graph

Daily Weather History Graph

Search for Another Location

Airport:

Trip Planner

Search our weather history database for the weather conditions in past years. The results will help you decide how hot, cold, wet, or windy it might be!

Date:

Astronomy

Nov. 15, 2012 Rise Set
Actual Time 6:47 AM MST 4:39 PM MST
Civil Twilight 6:18 AM MST 5:09 PM MST
Nautical Twilight 5:44 AM MST 5:42 PM MST
Astronomical Twilight 5:12 AM MST 6:15 PM MST
Moon 8:46 AM MST (11/15) 6:33 PM MST (11/15)
Length of Visible Light 10h 51m
Length of Day
9h 51m
Waxing Crescent, 5% of the Moon is Illuminated
Nov 15
Waxing Crescent
Nov 20
First Quarter
Nov 28
Full
Dec 6
Last Quarter
Dec 13
New

Hourly Weather History & Observations

Time (MST) Temp. Windchill Dew Point Humidity Pressure Visibility Wind Dir Wind Speed Gust Speed Precip Events Conditions
12:53 AM 37.0 °F 27.4 °F 30.0 °F 76% 30.15 in 10.0 mi NNW 17.3 mph 24.2 mph N/A   Overcast
1:42 AM 33.8 °F 23.9 °F 30.2 °F 87% 30.24 in 8.0 mi North 15.0 mph 23.0 mph 0.00 in Snow Light Snow
1:53 AM 32.0 °F 20.8 °F 28.9 °F 88% 30.21 in 4.0 mi North 17.3 mph 21.9 mph 0.00 in Snow Light Snow
2:02 AM 32.0 °F 21.6 °F 28.4 °F 87% 30.26 in 1.8 mi North 15.0 mph - 0.00 in Snow Light Snow
2:18 AM 30.2 °F 20.8 °F 28.4 °F 93% 30.27 in 2.5 mi North 11.5 mph 19.6 mph 0.00 in Snow Light Snow
2:29 AM 30.2 °F 21.3 °F 28.4 °F 93% 30.27 in 3.0 mi North 10.4 mph 18.4 mph 0.01 in Snow Light Snow
2:53 AM 30.9 °F 21.2 °F 28.0 °F 89% 30.25 in 4.0 mi North 12.7 mph - 0.01 in Snow Light Snow
3:53 AM 30.9 °F 22.8 °F 28.0 °F 89% 30.27 in 8.0 mi North 9.2 mph - 0.00 in   Overcast
4:53 AM 30.0 °F 22.4 °F 28.0 °F 92% 30.32 in 5.0 mi NNW 8.1 mph - 0.00 in Snow Light Snow
5:53 AM 30.0 °F 24.1 °F 27.0 °F 88% 30.33 in 10.0 mi West 5.8 mph - 0.00 in   Overcast
6:53 AM 28.0 °F 22.8 °F 25.0 °F 88% 30.36 in 10.0 mi WNW 4.6 mph - N/A   Scattered Clouds
7:53 AM 28.0 °F 22.8 °F 24.1 °F 85% 30.39 in 10.0 mi WNW 4.6 mph - N/A   Scattered Clouds
8:53 AM 34.0 °F 28.8 °F 26.1 °F 73% 30.38 in 10.0 mi WNW 5.8 mph - N/A   Scattered Clouds
9:53 AM 37.0 °F - 27.0 °F 67% 30.39 in 10.0 mi Calm Calm - N/A   Overcast
10:53 AM 39.9 °F 35.8 °F 23.0 °F 51% 30.37 in 10.0 mi Variable 5.8 mph - N/A   Mostly Cloudy
11:53 AM 41.0 °F 34.7 °F 24.1 °F 51% 30.35 in 10.0 mi South 10.4 mph - N/A   Scattered Clouds
12:53 PM 43.0 °F 36.4 °F 25.0 °F 49% 30.30 in 10.0 mi South 12.7 mph 17.3 mph N/A   Clear
1:53 PM 41.0 °F 35.2 °F 27.0 °F 57% 30.32 in 10.0 mi SSW 9.2 mph - N/A   Clear
2:53 PM 39.9 °F 32.5 °F 26.1 °F 58% 30.33 in 10.0 mi SSW 12.7 mph - N/A   Clear
3:53 PM 39.0 °F 30.6 °F 26.1 °F 60% 30.35 in 10.0 mi South 15.0 mph 19.6 mph N/A   Clear
4:53 PM 35.1 °F 26.4 °F 26.1 °F 70% 30.38 in 10.0 mi SSW 12.7 mph - N/A   Clear
5:53 PM 33.1 °F 24.4 °F 26.1 °F 75% 30.41 in 10.0 mi SSW 11.5 mph - N/A   Clear
6:53 PM 32.0 °F 23.6 °F 26.1 °F 79% 30.42 in 9.0 mi SW 10.4 mph - N/A   Clear
7:53 PM 30.9 °F 21.7 °F 25.0 °F 79% 30.42 in 7.0 mi SW 11.5 mph - N/A   Clear
8:53 PM 28.9 °F 20.4 °F 24.1 °F 82% 30.39 in 6.0 mi SW 9.2 mph - N/A   Haze
9:53 PM 30.0 °F 19.5 °F 26.1 °F 85% 30.36 in 6.0 mi SW 13.8 mph - N/A   Clear
10:53 PM 30.0 °F 20.0 °F 26.1 °F 85% 30.33 in 5.0 mi SW 12.7 mph - N/A   Clear
11:53 PM 30.0 °F 19.5 °F 26.1 °F 85% 30.30 in 6.0 mi SSW 13.8 mph - N/A   Clear